{"data":{"norad_id":68953,"intl_designator":"2026-099C","name":"STARLINK-37337","alt_names":[],"object_type":"PAYLOAD","status":"ACTIVE","operator":null,"country":"US","launch_date":"2026-05-01","launch_site_code":"AFETR","launch_vehicle":null,"mission":null,"orbit_class":"UNKNOWN","rcs_meters":null,"size_class":null,"mass_kg":null,"dimensions":null,"purposes":["comms"],"wikipedia_slug":null,"has_3d_model":false,"image_url":null,"decayed_at":null,"tle_current":{"epoch":"2026-09-20T04:32:50.336736Z","epoch_age_seconds":46239,"freshness":"FRESH","line1":"1 68953U 26099C   26263.18947149  .00011437  00000+0  34910-3 0  9994","line2":"2 68953  53.1571  77.4816 0001068 101.0545 259.0578 15.34399766 21854","mean_motion":15.34399766,"eccentricity":0.0001068,"inclination_deg":53.1571,"raan_deg":77.4816,"arg_perigee_deg":101.0545,"mean_anomaly_deg":259.0578,"bstar":0.0003491,"rev_number":2185,"period_min":93.847772393365,"perigee_km":461.97333389257,"apogee_km":463.43453751644,"semimajor_km":6840.8409357045,"source":"CELESTRAK","updated_at":"2026-09-20T09:00:44.051780Z"}}}